Mason City, IA

8:05 AM CDT on April 25, 2018 (GMT -0500)
Mason City Municipal

Weather History for KMCW - June, 2014

Change the Weather History Date:

Wednesday, June 11, 2014

  Actual Average Record
Temperature  
Mean Temperature 68 °F 67 °F  
Max Temperature 83 °F 79 °F 95 °F (2001)
Min Temperature 52 °F 56 °F 38 °F (1913)
Degree Days  
Heating Degree Days 0 2  
Month to date heating degree days 5 29  
Since 1 June heating degree days 5 29  
Since 1 July heating degree days 8615 7664  
Cooling Degree Days 3 4  
Month to date cooling degree days 33 33  
Year to date cooling degree days 86 68  
Since 1 June cooling degree days 33 33  
Growing Degree Days 17 (Base 50)    
Moisture  
Dew Point 53 °F    
Average Humidity 67    
Maximum Humidity 100    
Minimum Humidity 33    
Precipitation  
Precipitation 0.00 in 0.18 in 1.32 in (1984)
Month to date precipitation 1.30 1.91  
Year to date precipitation 15.34 14.39  
Snow  
Snow 0.00 in 0.00 in - ()
Month to date snowfall 0.0 0.0  
Since 1 June snowfall 0.0 0.0  
Since 1 July snowfall 58.0 41.2  
Snow Depth 0.00 in    
Sea Level Pressure  
Sea Level Pressure 29.79 in    
Wind  
Wind Speed 4 mph (SW)    
Max Wind Speed 16 mph    
Max Gust Speed 21 mph    
Visibility 9 miles    
Events      
T = Trace of Precipitation, MM = Missing Value Source: NWS Daily Summary

Daily Weather History Graph

Daily Weather History Graph

Search for Another Location

Airport or City:

Astronomy

Jun. 11, 2014 Rise Set
Actual Time 5:33 AM CDT 8:53 PM CDT
Civil Twilight 4:57 AM CDT 9:28 PM CDT
Nautical Twilight 4:12 AM CDT 10:14 PM CDT
Astronomical Twilight 3:15 AM CDT 11:11 PM CDT
Moon 7:20 PM CDT (6/11) 4:26 AM CDT (6/11)
Length of Visible Light 16h 30m
Length of Day
15h 19m
Waxing Gibbous, 97% of the Moon is Illuminated
Jun 11
Waxing Gibbous
Jun 12
Full
Jun 19
Last Quarter
Jun 27
New
Jul 5
First Quarter

Hourly Weather History & Observations

Time (CDT) Temp. Heat Index Dew Point Humidity Pressure Visibility Wind Dir Wind Speed Gust Speed Precip Events Conditions
12:53 AM 55.9 °F - 53.1 °F 90% 29.84 in 10.0 mi Calm Calm - N/A   Clear
1:53 AM 55.0 °F - 52.0 °F 89% 29.84 in 10.0 mi Calm Calm - N/A   Clear
2:53 AM 54.0 °F - 52.0 °F 93% 29.87 in 9.0 mi NW 4.6 mph - N/A   Clear
3:53 AM 54.0 °F - 52.0 °F 93% 29.88 in 9.0 mi Calm Calm - N/A   Clear
4:53 AM 54.0 °F - 53.1 °F 97% 29.85 in 7.0 mi North 3.5 mph - N/A   Clear
5:53 AM 52.0 °F - 51.1 °F 97% 29.83 in 4.0 mi Calm Calm - N/A   Clear
6:53 AM 57.9 °F - 55.0 °F 90% 29.83 in 5.0 mi Calm Calm - N/A   Clear
7:53 AM 66.0 °F - 57.9 °F 75% 29.82 in 10.0 mi Calm Calm - N/A   Clear
8:53 AM 70.0 °F - 57.0 °F 63% 29.83 in 10.0 mi NE 5.8 mph - N/A   Clear
9:53 AM 72.0 °F - 55.9 °F 57% 29.82 in 10.0 mi Variable 5.8 mph - N/A   Clear
10:53 AM 75.0 °F - 55.9 °F 51% 29.81 in 10.0 mi North - - N/A   Clear
11:53 AM 75.9 °F - 54.0 °F 46% 29.81 in 10.0 mi Variable 4.6 mph - N/A   Clear
12:53 PM 78.1 °F - 53.1 °F 42% 29.80 in 10.0 mi North 4.6 mph - N/A   Clear
1:53 PM 80.1 °F 80.0 °F 54.0 °F 40% 29.78 in 10.0 mi North - - N/A   Clear
2:53 PM 80.1 °F - 52.0 °F 38% 29.77 in 10.0 mi East 6.9 mph - N/A   Clear
3:53 PM 80.6 °F - 51.8 °F 37% 29.78 in 10.0 mi West 5.8 mph - N/A   Clear
4:53 PM 82.0 °F - 50.0 °F 33% 29.75 in 10.0 mi Calm Calm - N/A   Clear
5:53 PM 82.0 °F - 50.0 °F 33% 29.74 in 10.0 mi Calm Calm - N/A   Clear
6:53 PM 82.0 °F 81.2 °F 53.1 °F 37% 29.73 in 10.0 mi Calm Calm - N/A   Clear
7:53 PM 79.0 °F - 54.0 °F 42% 29.72 in 10.0 mi South 3.5 mph - N/A   Partly Cloudy
8:53 PM 75.0 °F - 53.1 °F 46% 29.72 in 10.0 mi SSW 4.6 mph - N/A   Mostly Cloudy
9:53 PM 70.0 °F - 54.0 °F 57% 29.73 in 10.0 mi SW 8.1 mph - N/A   Clear
10:53 PM 73.0 °F - 54.0 °F 51% 29.73 in 10.0 mi SSW 11.5 mph - N/A   Clear
11:53 PM 71.1 °F - 54.0 °F 55% 29.71 in 10.0 mi SW 11.5 mph - N/A   Clear